Location: Newark
(36.0797°N, 3.9744°E)
Time: 09:38:48
(UTC+00:00)

Vanguard 2 Rocket - Pass Details

Date: 11 December 2019
Orbit: 554 x 3326 km, 32.9° (Epoch: 27 January)

Event Time Altitude Azimuth Distance (km) Brightness Sun altitude
Rises 19:13:19 0° 262° (W) 6,277 12.3 -32.2°
Reaches altitude 10° 19:18:08 10° 261° (W) 4,842 11.4 -33.2°
Enters shadow 19:30:26 73° 183° (S) 1,483 7.7 -35.6°
Maximum altitude 19:30:29 73° 180° (S) 1,479 - -35.6°
Drops below altitude 10° 19:37:13 10° 96° (E) 2,757 - -37.0°
Sets 19:39:16 0° 95° (E) 3,478 - -37.4°
